Flag for Canada Weather past 2 weeks in Fredericton, New Brunswick, Canada

Now
61 °F

Mostly cloudy.


Feels Like: 61 °F
Forecast: 54 / 78 °F
Wind: No wind

Location: Fredericton

Current Time: Jul 31, 2014 at 5:19:07 AM

Latest Report: Jul 31, 2014 at 4:00 AM


Visibility: 9 mi

Pressure: 30.03 "Hg

Humidity: 94%

Dew point: 59 °F

Location of FrederictonLocation

Historic Weather in Fredericton — Graph

°F

Fredericton temperature yesterday

Maximum temperature yesterday: 77 °F (at 4:00 PM)
Minimum temperature yesterday: 54 °F (at 4:00 AM)
Average temperature yesterday: 65 °F

Past Weeks' High & Low Weather Summary

 TemperatureHumidityPressure
High90 °F (Jul 23, 5:00 PM)100% (Jul 16, 5:56 AM)30.26 "Hg (Jul 16, 5:56 AM)
Low46 °F (Jul 25, 6:00 AM)30% (Jul 25, 5:00 PM)29.52 "Hg (Jul 29, 4:00 AM)
Average68 °F79%29.90 "Hg
* Reported Jul 16 4:00 AM — Jul 31 4:00 AM, Fredericton, Weather by CustomWeather, © 2014

Note: Actual official high and low records may vary slightly from our data, if they occured in-between our weather recording intervals... More about our weather records

Advertising

Fredericton weather history for previous 24 hours

 ConditionsComfort  
Time TempWeatherWind HumidityBarometerVisibility
4:00 AM
Jul 31
61 °FMostly cloudy.No wind94%30.03 "Hg9 mi
3:00 AM61 °FMostly cloudy.3 mph94%30.03 "Hg9 mi
2:00 AM61 °FMostly cloudy.2 mph94%30.02 "Hg9 mi
1:00 AM61 °FMostly cloudy.3 mph94%30.02 "Hg9 mi
12:00 AM59 °FClear.2 mph100%30.01 "Hg9 mi
11:00 PM
Jul 30
61 °FPassing clouds.2 mph94%30.02 "Hg9 mi
10:00 PM63 °FPassing clouds.No wind88%30.03 "Hg9 mi
9:00 PM66 °FPartly sunny.6 mph78%30.02 "Hg9 mi
8:00 PM68 °FPassing clouds.5 mph69%30.02 "Hg9 mi
7:00 PM72 °FPartly sunny.13 mph69%30.02 "Hg9 mi
6:04 PM72 °FLight rain. Overcast.12 mph73%30.01 "Hg9 mi
5:00 PM75 °FScattered clouds.10 mph65%30.01 "Hg9 mi
4:00 PM77 °FSunny.7 mph61%30.01 "Hg9 mi
3:00 PM75 °FPassing clouds.7 mph65%30.02 "Hg9 mi
2:00 PM73 °FPartly sunny.7 mph69%30.03 "Hg9 mi
1:00 PM73 °FPartly sunny.7 mph69%30.05 "Hg9 mi
12:00 PM72 °FPartly sunny.No wind69%30.06 "Hg9 mi
11:00 AM70 °FSunny.No wind69%30.04 "Hg9 mi
10:00 AM64 °FSunny.3 mph83%30.05 "Hg9 mi
9:00 AM63 °FPartly sunny.2 mph83%30.05 "Hg9 mi
8:00 AM57 °FOvercast.2 mph100%30.04 "Hg9 mi
7:00 AM55 °FPassing clouds.No wind94%30.02 "Hg9 mi
6:00 AM55 °FPassing clouds.2 mph94%30.01 "Hg9 mi
5:00 AM55 °FPassing clouds.No wind94%30.00 "Hg9 mi
Weather by CustomWeather, © 2014

See weather overviewHow to use our weather pages